Regional Weather Roundup
Issued by NWS Kansas City/Pleasant Hill, MO

Home | Current Version | Previous Version | Graphics & Text | Print | Product List | Glossary Off
Versions: 1 2 3 4 5 6 7 8 9 10 11 12 13 14 15 16 17 18 19 20 21 22 23 24 25 26 27 28 29 30 31 32 33 34 35 36 37 38 39 40 41 42 43 44 45 46 47 48 49 50

000
ASUS43 KEAX 291910
RWREAX

WEATHER ROUNDUP FOR EASTERN KANSAS AND NORTHWEST MISSOURI
NATIONAL WEATHER SERVICE KANSAS CITY/PLEASANT HILL MO
200 PM CDT FRI AUG 29 2014

KSZ040-057-103>105-MOZ028-029-037-043-292000-
...KANSAS CITY METROPOLITAN AREA...

CITY           SKY/WX    TMP DP  RH WIND       PRES   REMARKS
K.C. INTL      CLOUDY    74  69  85 S10       29.86F
K.C. DOWNTOWN  CLOUDY    76  70  82 SW10      29.85F
LEES SUMMIT    PTSUNNY   75  69  81 SW12G21   29.87F
OLATHE - IXD   PTSUNNY   78  69  73 S10       29.87F
OLATHE - OJC   PTSUNNY   75  69  81 S7        29.86F
LAWRENCE       PTSUNNY   84  67  56 S9        29.84F

$$

MOZ001>008-011>017-020>025-030>033-038>040-044>046-053-054-292000-
...NORTHERN AND CENTRAL MISSOURI...

CITY           SKY/WX    TMP DP  RH WIND       PRES   REMARKS
ST. JOSEPH     CLOUDY    74  70  87 S9        29.84F
MOSBY          CLOUDY    72  70  94 S3        29.85F
WHITEMAN AFB   PTSUNNY   77  72  84 SW10      29.86F
CLINTON        PTSUNNY   79  73  83 SW9       29.88F
SEDALIA        PTSUNNY   79  69  71 SW10      29.88S
WARSAW         NOT AVBL
MARSHALL       PTSUNNY   79  75  89 W6        29.86F
CHILLICOTHE      N/A     74  70  87 SW8       29.87R
MOBERLY        MOSUNNY   88  66  48 SE14G20   29.85F HX  90
KIRKSVILLE     MOSUNNY   83  69  62 S14       29.85F

$$

MOZ041-047>049-056>058-063>065-088>090-097-292000-
...EASTERN AND SOUTHERN MISSOURI...

CITY           SKY/WX    TMP DP  RH WIND       PRES   REMARKS
ST. LOUIS INTL MOSUNNY   92  61  35 S14       29.91F HX  92
SPIRIT OF STL  MOSUNNY   90  65  43 VRB7      29.88F HX  92
COLUMBIA       MOSUNNY   91  65  41 S13       29.86F HX  93
JEFFERSON CITY MOSUNNY   91  66  43 S12G21    29.84F HX  93
MEXICO         MOSUNNY   91  72  52 S13       29.86F HX  98
HANNIBAL       SUNNY     90  63  40 SE12      29.87F HX  90
ROLLA          PTSUNNY   89  61  38 S15G23    29.88F
LEBANON        MOSUNNY   82  66  57 S18G25    29.90F THUNDER
OSAGE BEACH    CLOUDY    75  70  83 W12       29.87S
SPRINGFIELD    MOSUNNY   80  71  74 S12       29.90F
BRANSON        PTSUNNY   91  64  40 SW10      29.92F HX  93
NEVADA         MOSUNNY   82  68  61 SW6       29.89F
JOPLIN         MOSUNNY   88  64  44 SW18G24   29.90F
WEST PLAINS    MOSUNNY   87  63  44 SW15G23   29.95F

$$

IAZ060-094-KSZ022-034>040-054-083-096-NEZ052-066-093-292000-
...KANSAS...SOUTHEAST NEBRASKA AND IOWA...

CITY           SKY/WX    TMP DP  RH WIND       PRES   REMARKS
TOPEKA         MOSUNNY   83  68  60 SE9       29.83F
MANHATTAN      SUNNY     86  64  47 SW15      29.81F
EMPORIA        MOSUNNY   85  65  51 S16G23    29.84F
CHANUTE        MOSUNNY   82  67  60 SW15G21   29.88F
WICHITA        MOSUNNY   86  64  47 SW14      29.86F
OMAHA          CLOUDY    76  70  82 SE7       29.79F
LINCOLN        LGT RAIN  74  68  81 SW9       29.82F
FALLS CITY     PTSUNNY   79  68  69 S5        29.82F
DES MOINES     CLOUDY    82  69  64 SW13      29.80F

$$



USA.gov is the U.S. government's official web portal to all federal, state and local government web resources and services.